Flag for Germany Weather past 2 weeks in Memmingen, Bavaria, Germany

Now
37 °F

Light rain. Overcast.


Feels Like: 37 °F
Forecast: 34 / 43 °F
Wind: 2 mph from Southwest

Location: Kempten

Current Time: Mar 1, 2015 at 10:15:39 AM

Latest Report: Mar 1, 2015 at 10:00 AM


Visibility: 13 mi

Pressure: 29.93 "Hg

Humidity: 84%

Dew point: 32 °F

Location of MemmingenLocation

Historic Weather in Memmingen — Graph

°F

Memmingen temperature yesterday

Maximum temperature yesterday: 38 °F (at 2:00 PM)
Minimum temperature yesterday: 31 °F (at 8:00 PM)
Average temperature yesterday: 34 °F

Past Weeks' High & Low Weather Summary

 TemperatureHumidityPressure
High52 °F (Feb 20, 1:00 PM)99% (Feb 28, 7:00 AM)30.77 "Hg (Feb 28, 7:00 AM)
Low11 °F (Feb 16, 6:00 AM)26% (Feb 20, 1:00 PM)29.50 "Hg (Feb 21, 1:00 PM)
Average30 °F80%30.09 "Hg
* Reported Feb 14 9:00 AM — Mar 1 9:00 AM, Memmingen, Weather by CustomWeather, © 2015

Note: Actual official high and low records may vary slightly from our data, if they occured in-between our weather recording intervals... More about our weather records

Advertising

Memmingen weather history for previous 24 hours

 ConditionsComfort  
Time TempWeatherWind HumidityBarometerVisibility
9:00 AM
Sun, Mar 1
35 °FLight rain. Partly sunny.3 mph84%29.94 "Hg12 mi
8:00 AM35 °FLight snow. Overcast.2 mph81%29.95 "Hg7 mi
7:00 AM31 °FOvercast.2 mph86%29.98 "Hg14 mi
6:00 AM30 °FOvercast.3 mph89%29.99 "Hg10 mi
5:00 AM29 °FOvercast.3 mph91%30.00 "Hg9 mi
3:00 AM27 °FFog.2 mph96%30.04 "Hg4 mi
2:00 AM26 °FFog.2 mph97%30.07 "Hg3 mi
1:00 AM28 °FFog.2 mph96%30.08 "Hg2 mi
12:00 AM31 °FFog.1 mph95%30.08 "Hg2 mi
11:00 PM
Sat, Feb 28
32 °FFog.2 mph95%30.10 "Hg2 mi
9:00 PM31 °FFog.1 mph95%30.14 "Hg3 mi
8:00 PM31 °FFog.1 mph93%30.14 "Hg3 mi
7:00 PM32 °FFog.1 mph91%30.14 "Hg4 mi
6:00 PM35 °FSunny.1 mph84%30.11 "Hg7 mi
5:00 PM37 °FOvercast.1 mph74%30.11 "Hg11 mi
4:00 PM37 °FOvercast.1 mph72%30.12 "Hg13 mi
3:00 PM37 °FOvercast.2 mph73%30.12 "Hg9 mi
2:00 PM38 °FSunny.2 mph65%30.13 "Hg8 mi
1:00 PM37 °FSunny.2 mph69%30.16 "Hg5 mi
12:00 PM37 °FSunny.2 mph66%30.19 "Hg7 mi
11:00 AM35 °FOvercast.2 mph77%30.21 "Hg7 mi
10:00 AM35 °FLow clouds.No wind79%30.22 "Hg7 mi
Weather by CustomWeather, © 2015

See weather overviewHow to use our weather pages